TimeCDT,TemperatureF,Dew PointF,Humidity,Sea Level PressureIn,VisibilityMPH,Wind Direction,Wind SpeedMPH,Gust SpeedMPH,PrecipitationIn,Events,Conditions,WindDirDegrees,DateUTC
12:15 AM,59.2,56.8,92,30.08,10.0,Calm,Calm,-,N/A,,Clear,0,2013-07-25 05:15:00
12:35 AM,59.0,56.3,91,30.08,10.0,Calm,Calm,-,N/A,,Clear,0,2013-07-25 05:35:00
12:55 AM,58.3,56.1,93,30.08,10.0,Calm,Calm,-,N/A,,Clear,0,2013-07-25 05:55:00
1:15 AM,57.7,55.4,92,30.08,10.0,Calm,Calm,-,N/A,,Clear,0,2013-07-25 06:15:00
1:35 AM,57.4,55.4,93,30.08,10.0,Calm,Calm,-,N/A,,Clear,0,2013-07-25 06:35:00
1:55 AM,58.1,55.8,92,30.08,10.0,Calm,Calm,-,N/A,,Clear,0,2013-07-25 06:55:00
2:15 AM,57.4,54.9,91,30.07,10.0,Calm,Calm,-,N/A,,Clear,0,2013-07-25 07:15:00
2:35 AM,56.7,54.7,93,30.08,10.0,Calm,Calm,-,N/A,,Clear,0,2013-07-25 07:35:00
2:55 AM,56.7,54.7,93,30.08,10.0,Calm,Calm,-,N/A,,Clear,0,2013-07-25 07:55:00
3:15 AM,56.5,54.5,93,30.08,10.0,Calm,Calm,-,N/A,,Clear,0,2013-07-25 08:15:00
3:35 AM,56.3,54.1,92,30.09,10.0,Calm,Calm,-,N/A,,Clear,0,2013-07-25 08:35:00
3:55 AM,55.9,53.8,92,30.09,10.0,Calm,Calm,-,N/A,,Clear,0,2013-07-25 08:55:00
4:15 AM,55.8,53.8,93,30.09,10.0,Calm,Calm,-,N/A,,Clear,0,2013-07-25 09:15:00
4:35 AM,55.8,53.8,93,30.10,10.0,Calm,Calm,-,N/A,,Clear,0,2013-07-25 09:35:00
4:55 AM,55.0,53.1,93,30.10,10.0,Calm,Calm,-,N/A,,Clear,0,2013-07-25 09:55:00
5:15 AM,55.0,52.9,92,30.10,10.0,Calm,Calm,-,N/A,,Clear,0,2013-07-25 10:15:00
5:35 AM,54.7,52.7,93,30.10,10.0,Calm,Calm,-,N/A,,Clear,0,2013-07-25 10:35:00
5:55 AM,54.5,52.7,94,30.11,10.0,Calm,Calm,-,N/A,,Clear,0,2013-07-25 10:55:00
6:15 AM,54.9,52.7,92,30.11,10.0,Calm,Calm,-,N/A,,Clear,0,2013-07-25 11:15:00
6:35 AM,55.8,53.8,93,30.11,10.0,Calm,Calm,-,N/A,,Clear,0,2013-07-25 11:35:00
6:55 AM,57.6,55.6,93,30.12,10.0,Calm,Calm,-,N/A,,Clear,0,2013-07-25 11:55:00
7:15 AM,59.7,57.7,93,30.13,10.0,Calm,Calm,-,N/A,,Clear,0,2013-07-25 12:15:00
7:35 AM,61.9,59.0,90,30.13,10.0,Calm,Calm,-,N/A,,Clear,0,2013-07-25 12:35:00
7:55 AM,63.9,60.3,88,30.13,10.0,Calm,Calm,-,N/A,,Clear,0,2013-07-25 12:55:00
8:15 AM,65.8,60.3,82,30.12,10.0,Calm,Calm,-,N/A,,Clear,0,2013-07-25 13:15:00
8:35 AM,68.0,60.4,77,30.13,10.0,Calm,Calm,-,N/A,,Clear,0,2013-07-25 13:35:00
8:55 AM,69.8,60.1,71,30.13,10.0,Calm,Calm,-,N/A,,Clear,0,2013-07-25 13:55:00
9:15 AM,71.4,60.3,68,30.13,10.0,South,3.5,-,N/A,,Clear,170,2013-07-25 14:15:00
9:35 AM,72.9,58.1,60,30.13,10.0,South,3.5,-,N/A,,Clear,190,2013-07-25 14:35:00
9:55 AM,74.5,57.4,55,30.14,10.0,Calm,Calm,-,N/A,,Clear,0,2013-07-25 14:55:00
10:15 AM,75.4,55.9,51,30.13,10.0,Calm,Calm,-,N/A,,Clear,0,2013-07-25 15:15:00
10:35 AM,75.9,56.3,50,30.13,10.0,WSW,3.5,-,N/A,,Clear,240,2013-07-25 15:35:00
10:55 AM,77.2,56.8,49,30.14,10.0,Calm,Calm,-,N/A,,Clear,0,2013-07-25 15:55:00
11:15 AM,77.4,55.8,47,30.14,10.0,Calm,Calm,-,N/A,,Clear,0,2013-07-25 16:15:00
11:35 AM,78.6,56.1,46,30.14,10.0,Calm,Calm,-,N/A,,Clear,0,2013-07-25 16:35:00
11:55 AM,79.0,57.7,48,30.14,10.0,East,4.6,-,N/A,,Clear,100,2013-07-25 16:55:00
12:15 PM,79.3,55.9,44,30.13,10.0,Calm,Calm,-,N/A,,Clear,0,2013-07-25 17:15:00
12:35 PM,80.1,56.5,44,30.14,10.0,Calm,Calm,-,N/A,,Clear,0,2013-07-25 17:35:00
12:55 PM,80.2,56.8,45,30.13,10.0,Calm,Calm,-,N/A,,Scattered Clouds,0,2013-07-25 17:55:00
1:15 PM,81.0,57.0,44,30.13,10.0,Calm,Calm,-,N/A,,Scattered Clouds,0,2013-07-25 18:15:00
1:35 PM,79.0,58.6,50,30.13,10.0,Calm,Calm,-,N/A,,Scattered Clouds,0,2013-07-25 18:35:00
1:55 PM,82.0,59.4,46,30.13,10.0,South,3.5,-,N/A,,Mostly Cloudy,190,2013-07-25 18:55:00
2:15 PM,79.5,57.6,47,30.12,10.0,Calm,Calm,-,N/A,,Mostly Cloudy,0,2013-07-25 19:15:00
2:35 PM,81.5,59.4,47,30.11,10.0,South,5.8,-,N/A,,Mostly Cloudy,170,2013-07-25 19:35:00
2:55 PM,82.0,60.6,48,30.11,10.0,Calm,Calm,-,N/A,,Mostly Cloudy,0,2013-07-25 19:55:00
3:15 PM,82.0,58.6,45,30.11,10.0,South,5.8,-,N/A,,Overcast,180,2013-07-25 20:15:00
3:35 PM,81.7,59.9,47,30.10,10.0,ESE,5.8,-,N/A,,Scattered Clouds,120,2013-07-25 20:35:00
3:55 PM,81.0,59.2,47,30.10,10.0,SSE,3.5,-,N/A,,Clear,150,2013-07-25 20:55:00
4:15 PM,80.6,59.4,48,30.09,10.0,SSE,3.5,-,N/A,,Scattered Clouds,160,2013-07-25 21:15:00
4:35 PM,81.5,60.1,48,30.09,10.0,South,6.9,-,N/A,,Clear,190,2013-07-25 21:35:00
4:55 PM,81.0,59.4,48,30.09,10.0,South,6.9,-,N/A,,Scattered Clouds,190,2013-07-25 21:55:00
5:15 PM,80.4,60.4,50,30.09,10.0,SSE,6.9,-,N/A,,Scattered Clouds,160,2013-07-25 22:15:00
5:35 PM,79.0,59.7,52,30.09,10.0,South,5.8,-,N/A,,Scattered Clouds,180,2013-07-25 22:35:00
5:55 PM,78.8,60.1,53,30.09,10.0,South,6.9,-,N/A,,Scattered Clouds,190,2013-07-25 22:55:00
6:15 PM,78.6,60.4,54,30.09,10.0,South,4.6,-,N/A,,Clear,180,2013-07-25 23:15:00
6:35 PM,77.9,59.9,54,30.09,10.0,South,5.8,-,N/A,,Clear,180,2013-07-25 23:35:00
6:55 PM,77.9,60.1,54,30.08,10.0,South,5.8,-,N/A,,Clear,190,2013-07-25 23:55:00
7:15 PM,76.8,60.4,57,30.08,10.0,South,4.6,-,N/A,,Clear,180,2013-07-26 00:15:00
7:35 PM,76.1,61.2,60,30.08,10.0,South,3.5,-,N/A,,Clear,170,2013-07-26 00:35:00
7:55 PM,74.3,61.5,64,30.08,10.0,South,4.6,-,N/A,,Clear,170,2013-07-26 00:55:00
8:15 PM,72.9,62.6,70,30.08,10.0,South,3.5,-,N/A,,Clear,170,2013-07-26 01:15:00
8:35 PM,71.2,63.5,76,30.08,10.0,South,3.5,-,N/A,,Clear,170,2013-07-26 01:35:00
8:55 PM,70.0,63.5,80,30.08,10.0,SSE,3.5,-,N/A,,Clear,160,2013-07-26 01:55:00
9:15 PM,69.1,63.5,82,30.08,10.0,South,4.6,-,N/A,,Clear,170,2013-07-26 02:15:00
9:35 PM,70.7,62.8,76,30.08,10.0,South,5.8,-,N/A,,Clear,170,2013-07-26 02:35:00
9:55 PM,70.9,63.0,76,30.09,10.0,Calm,Calm,-,N/A,,Clear,0,2013-07-26 02:55:00
10:15 PM,70.3,63.1,78,30.08,10.0,SSE,3.5,-,N/A,,Clear,160,2013-07-26 03:15:00
10:35 PM,70.9,62.8,75,30.09,10.0,South,4.6,-,N/A,,Clear,180,2013-07-26 03:35:00
10:55 PM,69.8,63.1,79,30.09,10.0,SSE,4.6,-,N/A,,Clear,150,2013-07-26 03:55:00
11:15 PM,69.8,63.0,79,30.09,10.0,SSE,4.6,-,N/A,,Clear,160,2013-07-26 04:15:00
11:35 PM,69.8,63.0,79,30.08,10.0,SSE,4.6,-,N/A,,Clear,160,2013-07-26 04:35:00
11:55 PM,69.1,63.3,82,30.08,10.0,SSE,3.5,-,N/A,,Clear,160,2013-07-26 04:55:00